FALCON 9 DEB (55626 NORAD) Tracking and Keplerian Element Data

This shows tracking and keplerian element data for the satellite.

Feedback or suggestion? Click here.




ElementValue
Catalog55626
NameFALCON 9 DEB
Epoch Orbit314
Epoch Day62.89206246
Epoch Year2023
RAAN234.4835
Inclination42.9996
Eccentricity0.0014688
Argument of Perigee59.9397
Mean Anonmoly300.2936
Mean Motion16.01163107
Decay Rate0.00625628
L11 55626U 23020BK 23062.89206246 .00625628 18402-3 10885-2 0 9992
L22 55626 42.9996 234.4835 0014688 59.9397 300.2936 16.01163107 3140



Live tracking and technical data element details for FALCON 9 DEB (NORAD 55626). FALCON 9 DEB can be tracked NOW for your location showing map with azimuth and elevation plus other details from your city location.







IsCatalogInMostPopularTable: catalog: 55626, numindb: 4
Update: records affected: 1



GetName: 55626 FALCON 9 DEB

Hit Count: updated at: Tue, 28 Mar 2023 01:47:22 GMT